Hourly Data Report for September 18, 2017

All times are specified in Local Standard Time (LST). Add 1 hour to adjust for Daylight Saving Time where and when it is observed.

WINNIPEG A CS
MANITOBA

49°55'00.000" N
97°14'58.000" W
238.70 m
502S001
71849
XWG

Download Data

Hourly Data (September 2017)
Hourly Data Report for September 18, 2017
Temp Definition
°C
Dew Point Temp Definition
°C
Rel Hum Definition
%
Wind Dir Definition
10's deg

Wind Spd Definition
km/h
Visibility Definition
km
Stn Press Definition
kPa
Hmdx Definition


Wind Chill Definition


Weather Definition


TIME
00:00 6.3 4.3 87 22 10   98.66     LegendNANA
01:00 7.7 4.7 81 22 5   98.63     LegendNANA
02:00 7.0 4.9 87 16 9   98.62     LegendNANA
03:00 7.2 4.5 83 18 8   98.58     LegendNANA
04:00 5.2 3.5 89 15 8   98.59     LegendNANA
05:00 4.6 3.6 93 16 13   98.55     LegendNANA
06:00 5.1 3.7 91 9 5   98.58     LegendNANA
07:00 5.7 4.1 90 11 4   98.60     LegendNANA
08:00 8.3 4.9 79 14 11   98.60     LegendNANA
09:00 10.6 5.6 71 15 12   98.57     LegendNANA
10:00 13.2 5.5 60 15 6   98.56     LegendNANA
11:00 15.8 6.0 52 14 6   98.54     LegendNANA
12:00 18.0 7.1 49 13 8   98.46     LegendNANA
13:00 19.5 7.1 45 17 13   98.36     LegendNANA
14:00 19.3 6.7 44 16 12   98.27     LegendNANA
15:00 20.2 7.5 44 14 10   98.23     LegendNANA
16:00 19.3 7.7 47 13 12   98.23     LegendNANA
17:00 18.8 8.7 52 14 9   98.22     LegendNANA
18:00 18.3 9.0 55 11 11   98.22     LegendNANA
19:00 16.6 9.9 65 15 7   98.25     LegendNANA
20:00 16.6 10.2 66 13 12   98.23     LegendNANA
21:00 15.7 10.6 72 12 9   98.22     LegendNANA
22:00 15.3 10.9 75 13 11   98.21     LegendNANA
23:00 14.1 10.5 79 13 12   98.22     LegendNANA

Notes on Data Quality.

Legend

  • E = Estimated
  • M = Missing
  • NA = Not Available
  • ‡ = Partner data that is not subject to review by the National Climate Archives
Date modified: